Tracking 17632 objects as of 1-May-2016
HD Live streaming from Space Station
objects crossing your sky now

OPS 6182 (DMSP 5D-1 F2)

Track OPS 6182 (DMSP 5D-1 F2) now!
10-day predictions
OPS 6182 (DMSP 5D-1 F2) is classified as:


NORAD ID: 10820
Int'l Code: 1978-042A
Perigee: 775.5 km
Apogee: 789.0 km
Inclination: 98.6 °
Period: 100.3 minutes
Semi major axis: 7153 km
RCS: 4.1055 m2 (large)
Launch date: May 1, 1978
Source: United States (US)
Launch site: AIR FORCE WESTERN TEST RANGE (AFWTR)
Your satellite tracking list
Your tracking list is empty





NASA's NSSDC Master Catalog

Two Line Element Set (TLE):
1 10820U 78042A   16121.52623209  .00000165  00000-0  73448-4 0  9994
2 10820  98.5613 307.1858 0009462 178.9322 181.1885 14.34984937982160
Source of the keplerian elements: AFSPC

N2YO: 286